Weather History for Zaragoza, Spain

Change the Weather History Date:

Saturday, July 13, 2013

  Actual Average Record
Temperature  
Mean Temperature 81 °F -  
Max Temperature 95 °F 87 °F 100 °F (2003)
Min Temperature 67 °F 62 °F 55 °F (2008)
Cooling Degree Days 16    
Growing Degree Days 31 (Base 50)    
Moisture  
Dew Point 60 °F    
Average Humidity 57    
Maximum Humidity 83    
Minimum Humidity 25    
Precipitation  
Precipitation 0.12 in 0.02 in - ()
Sea Level Pressure  
Sea Level Pressure 30.01 in    
Wind  
Wind Speed 6 mph ()    
Max Wind Speed 27 mph    
Max Gust Speed -    
Visibility 6.2 miles    
Events Rain , Thunderstorm    
Averages and records for this station are not official NWS values.
T = Trace of Precipitation, MM = Missing Value Source: Averaged Metar Reports

Daily Weather History Graph

Daily Weather History Graph

Search for Another Location

Airport:

Trip Planner

Search our weather history database for the weather conditions in past years. The results will help you decide how hot, cold, wet, or windy it might be!

Date:

Astronomy

Jul. 13, 2013 Rise Set
Actual Time 6:41 AM CEST 9:37 PM CEST
Civil Twilight 6:08 AM CEST 10:11 PM CEST
Nautical Twilight 5:25 AM CEST 10:53 PM CEST
Astronomical Twilight 4:36 AM CEST 11:42 PM CEST
Moon 11:47 AM CEST (7/13) No Moon Set
Length of Visible Light 16h 03m
Length of Day
14h 56m
Waxing Crescent, 23% of the Moon is Illuminated
Jul 13
Waxing Crescent
Jul 16
First Quarter
Jul 22
Full
Jul 29
Last Quarter
Aug 6
New

Hourly Weather History & Observations

Time (CEST) Temp. Heat Index Dew Point Humidity Pressure Visibility Wind Dir Wind Speed Gust Speed Precip Events Conditions
12:00 AM 71.6 °F - 62.6 °F 73% 30.01 in 5.6 mi SSE 16.1 mph - N/A Rain , Thunderstorm Light Thunderstorms and Rain
12:30 AM 71.6 °F - 62.6 °F 73% 30.04 in 6.2 mi NW 12.7 mph - N/A Thunderstorm Thunderstorm
1:00 AM 75.2 °F - 60.8 °F 61% 30.01 in 6.2 mi WNW 10.4 mph - N/A Thunderstorm Partly Cloudy
1:30 AM 75.2 °F - 60.8 °F 61% 30.04 in 6.2 mi West 10.4 mph - N/A   Partly Cloudy
2:00 AM 72 °F - 61 °F 61% 30.01 in 6 mi South 3.5 mph - -   Partly Cloudy
2:00 AM 71.6 °F - 62.6 °F 73% 30.04 in 6.2 mi South 4.6 mph - N/A   Partly Cloudy
2:30 AM 71.6 °F - 60.8 °F 69% 30.04 in 6.2 mi WSW 3.5 mph - N/A   Partly Cloudy
3:00 AM 71.6 °F - 60.8 °F 69% 30.04 in 6.2 mi WSW 3.5 mph - N/A   Partly Cloudy
3:30 AM 69.8 °F - 60.8 °F 73% 30.04 in 6.2 mi WSW 4.6 mph - N/A   Partly Cloudy
4:00 AM 69.8 °F - 60.8 °F 73% 30.04 in 6.2 mi WSW 4.6 mph - N/A   Partly Cloudy
4:30 AM 69.8 °F - 60.8 °F 73% 30.01 in 6.2 mi WNW 2.3 mph - N/A   Partly Cloudy
5:00 AM 69 °F - 62 °F 71% 30.00 in 6 mi WNW 2.2 mph - -   Scattered Clouds
5:00 AM 68.0 °F - 60.8 °F 78% 30.04 in 6.2 mi Calm Calm - N/A   Partly Cloudy
5:30 AM 68.0 °F - 60.8 °F 78% 30.04 in 6.2 mi Calm Calm - N/A   Partly Cloudy
6:00 AM 68.0 °F - 60.8 °F 78% 30.04 in 6.2 mi Calm Calm - N/A   Partly Cloudy
6:30 AM 66.2 °F - 60.8 °F 83% 30.01 in 6.2 mi SSW 4.6 mph - N/A   Partly Cloudy
7:00 AM 66.2 °F - 60.8 °F 83% 30.04 in - Variable 1.2 mph - N/A   Clear
7:30 AM 66.2 °F - 60.8 °F 83% 30.01 in - West 3.5 mph - N/A   Clear
8:00 AM 72 °F - 65 °F 73% 29.99 in 7 mi WSW 2.3 mph - -  
8:00 AM 69.8 °F - 62.6 °F 78% 30.04 in - Variable 1.2 mph - N/A   Clear
8:30 AM 71.6 °F - 62.6 °F 73% 30.04 in - Calm Calm - N/A   Clear
9:00 AM 75.2 °F - 62.6 °F 65% 30.04 in - Calm Calm - N/A   Clear
9:30 AM 75.2 °F - 62.6 °F 65% 30.04 in - Variable 2.3 mph - N/A   Clear
10:00 AM 75.2 °F - 64.4 °F 69% 30.04 in - NNE 1.2 mph - N/A   Clear
10:30 AM 77.0 °F - 62.6 °F 61% 30.04 in - NE 2.3 mph - N/A   Clear
11:00 AM 80 °F - 65 °F 51% 29.98 in 7 mi Calm Calm - -  
11:00 AM 78.8 °F - 64.4 °F 61% 30.04 in - North 1.2 mph - N/A   Clear
11:30 AM 80.6 °F 81.8 °F 62.6 °F 54% 30.04 in - North 1.2 mph - N/A   Clear
12:00 PM 82.4 °F 83.4 °F 62.6 °F 51% 30.04 in - NE 2.3 mph - N/A   Clear
12:30 PM 82.4 °F 82.9 °F 60.8 °F 48% 30.04 in - NE 2.3 mph - N/A   Clear
1:00 PM 86.0 °F 84.9 °F 57.2 °F 37% 30.01 in - ENE 2.3 mph - N/A   Clear
2:00 PM 87 °F - 60 °F 31% 29.97 in 7 mi ENE 1.2 mph - -   Scattered Clouds
2:00 PM 87.8 °F 86.5 °F 57.2 °F 35% 30.01 in 6.2 mi NE 2.3 mph - N/A   Partly Cloudy
2:30 PM 87.8 °F 86.1 °F 55.4 °F 33% 30.01 in 6.2 mi NNE 3.5 mph - N/A   Partly Cloudy
3:00 PM 89.6 °F 87.3 °F 53.6 °F 29% 30.01 in 6.2 mi East 4.6 mph - N/A   Partly Cloudy
3:30 PM 91.4 °F - 51.8 °F 26% 29.98 in 6.2 mi ENE 4.6 mph - N/A   Partly Cloudy
4:00 PM 91.4 °F 89.1 °F 53.6 °F 28% 29.98 in 6.2 mi NE 5.8 mph - N/A   Partly Cloudy
4:30 PM 91.4 °F 89.4 °F 55.4 °F 29% 29.98 in 6.2 mi ENE 3.5 mph - N/A   Partly Cloudy
5:00 PM 92 °F - 60 °F 25% 29.89 in 7 mi NNE 6.7 mph - -   Scattered Clouds
5:00 PM 91.4 °F 89.4 °F 55.4 °F 29% 29.95 in 6.2 mi NNE 4.6 mph - N/A   Partly Cloudy
5:30 PM 91.4 °F 89.4 °F 55.4 °F 29% 29.95 in 6.2 mi East 3.5 mph - N/A   Partly Cloudy
6:00 PM 93.2 °F 90.8 °F 53.6 °F 26% 29.95 in 6.2 mi SE 3.5 mph - N/A   Partly Cloudy
6:30 PM 91.4 °F 89.9 °F 57.2 °F 31% 29.95 in 6.2 mi NE 2.3 mph - N/A   Scattered Clouds
7:30 PM 84.2 °F 83.5 °F 57.2 °F 40% 29.95 in 6.2 mi NW 15.0 mph - N/A   Scattered Clouds
7:41 PM 84.2 °F 83.5 °F 57.2 °F 40% 29.95 in 6.2 mi NW 17.3 mph - N/A Thunderstorm Thunderstorm
8:00 PM 88 °F - 60 °F 29% 29.91 in 9 mi NW 26.8 mph - - Thunderstorm Thunderstorm
8:00 PM 84.2 °F 83.5 °F 57.2 °F 40% 29.98 in 6.2 mi West 13.8 mph - N/A Thunderstorm Thunderstorm
8:07 PM 77.0 °F - 64.4 °F 65% 29.98 in 3.7 mi SSW 19.6 mph - N/A Rain , Thunderstorm Thunderstorms and Rain
8:30 PM 73.4 °F - 66.2 °F 78% 30.01 in 5.6 mi South 11.5 mph - N/A Rain , Thunderstorm Thunderstorms and Rain
9:00 PM 73.4 °F - 66.2 °F 78% 30.04 in 5.6 mi ENE 6.9 mph - N/A   Scattered Clouds
9:30 PM 71.6 °F - 62.6 °F 73% 30.01 in 5.6 mi East 8.1 mph - N/A   Scattered Clouds
10:00 PM 73.4 °F - 62.6 °F 69% 30.01 in 5.6 mi SSE 11.5 mph - N/A   Scattered Clouds
10:30 PM 73.4 °F - 59.0 °F 61% 30.01 in 6.2 mi SE 12.7 mph - N/A   Partly Cloudy
11:00 PM 74 °F - 60 °F 51% 30.02 in 6 mi ESE 8.9 mph - -   Partly Cloudy
11:30 PM 71.6 °F - 59.0 °F 64% 30.06 in 6.2 mi ESE 5.8 mph - N/A   Partly Cloudy